Simultaneous Nadir Overpasses (SNOs) Predictions

Prediction of SNOs between AQUA and METOP-C Satellite Orbit:

Table of predicted SNOs for the next 14.0 days since TLE Epoch: 3/5/2022
Index Date (AQUA) Time (AQUA) Lat,Lon (AQUA) SZA (AQUA ) Date (METOP-C) Time (METOP-C) Lat,Lon (METOP-C) SZA (METOP-C ) Distance(km) Time Diff (sec)
1 03/07/2022 03:39:35 -73.56, -59.87 101.08 03/07/2022 03:38:23 -73.49, -60.84 101.09 31.35 72
2 03/07/2022 04:29:07 73.79, 107.26 79.16 03/07/2022 04:28:56 73.78, 107.18 79.16 2.54 11
3 03/07/2022 05:18:34 -73.88, -85.29 100.76 03/07/2022 05:19:37 -73.87, -85.29 100.78 0.90 63
4 03/09/2022 23:13:46 -73.74, 6.21 101.99 03/09/2022 23:12:41 -73.75, 6.17 101.96 1.61 65
5 03/10/2022 00:03:15 73.82, 173.68 78.09 03/10/2022 00:03:19 73.80, 173.62 78.07 2.71 4
6 03/10/2022 00:52:45 -74.06, -19.22 101.67 03/10/2022 00:53:56 -74.08, -18.38 101.70 25.73 71
7 03/12/2022 18:47:53 -73.79, 72.59 103.05 03/12/2022 18:47:03 -73.76, 72.60 103.07 3.24 50
8 03/12/2022 19:37:21 73.82,-119.84 76.97 03/12/2022 19:37:41 73.81,-119.95 76.97 3.40 20
9 03/15/2022 14:22:00 -73.81, 139.03 104.15 03/15/2022 14:21:25 -73.81, 139.13 104.14 3.04 35
10 03/15/2022 15:11:28 73.84, -53.40 75.88 03/15/2022 15:12:03 73.87, -53.40 75.90 3.41 35
11 03/18/2022 09:56:06 -73.79,-154.45 105.28 03/18/2022 09:55:48 -73.81,-154.47 105.26 2.53 18
12 03/18/2022 10:45:35 73.88, 12.99 74.80 03/18/2022 10:46:26 73.87, 13.01 74.79 0.82 51



Historial Predications of SNOs between AQUA and METOP-C
